RH
66 80 99 100 100 88 74 70 52 40 44 50 57 65 75 79 76 74 79 79 82 79 69 64 60 58 62 62 65 82 70 60 57 51 47 39 33 30 29 25 21 22 40 38 44 49 53 47 38
67 59 56 70 81 64 62 43 37 52 51 44 55 65 68 73 74 72 82 85 77 71 67 62 55 55 56 57 55 64 69 57 52 50 45 39 33 29 26 23 21 25 39 48 47 44 49 56 50
84 84 62 66 59 52 52 48 44 39 42 38 44 51 63 81 70 64 63 63 65 63 60 57 50 49 53 49 46 50 45 41 40 40 42 41 34 30 27 24 21 25 28 49 49 51 53 64 57
27 37 50 86 75 60 60 60 57 46 41 44 50 50 51 70 77 52 47 46 49 46 45 50 51 50 44 42 42 36 41 41 38 36 37 38 32 31 29 25 23 24 26 40 50 53 49 81 67
29 25 23 22 24 35 59 81 76 69 51 44 44 43 42 38 37 36 39 40 40 39 37 35 40 40 48 58 48 43 41 40 36 31 31 40 46 41 34 28 24 26 34 38 43 53 54 83 100
27 28 30 30 35 29 26 23 31 52 62 64 60 54 49 52 51 47 42 41 36 33 33 35 35 43 49 48 56 53 45 42 42 39 31 36 34 32 33 31 27 25 38 73 44 61 53 60 69
23 26 23 26 27 34 41 43 38 27 23 27 33 39 45 48 52 57 58 58 58 51 51 49 27 22 39 51 56 60 60 53 40 43 40 37 43 41 39 43 38 27 27 73 78 62 61 64 60
29 29 24 24 25 27 33 33 36 36 36 42 44 30 26 26 28 31 35 37 47 52 61 67 49 48 43 43 43 55 80 72 65 49 52 40 41 43 36 41 37 31 30 37 98 87 93 74 65
34 35 28 29 30 28 26 25 26 27 31 32 35 50 48 36 25 21 22 22 25 28 33 43 58 63 53 53 60 68 73 76 75 84 90 60 55 49 42 42 41 36 32 30 42 79 87 100 85
41 45 34 37 36 31 32 29 27 28 30 30 30 30 32 35 38 36 43 32 21 28 26 25 32 37 43 45 60 67 81 100 100 100 100 99 72 58 56 47 43 40 45 45 33 36 33 85 97
42 43 41 52 48 46 41 38 36 30 28 33 35 32 31 30 32 34 37 34 40 37 41 29 25 24 26 34 40 47 59 97 100 98 96 94 100 80 61 62 48 41 39 40 36 33 36 46 52
48 47 42 46 44 42 42 47 45 37 39 34 29 32 30 38 39 41 39 34 33 36 42 31 33 29 31 22 22 29 38 45 68 100 89 99 95 96 93 68 58 61 48 48 44 49 39 56 62
79 77 60 47 48 38 40 45 49 52 40 39 34 32 32 32 32 38 37 35 32 33 38 42 40 37 40 40 32 20 28 33 38 46 67 88 88 100 99 93 72 71 74 61 60 61 56 54 69
82 72 64 56 51 46 43 50 48 45 55 47 38 34 32 32 33 36 35 38 34 33 36 43 45 40 39 38 46 37 38 38 32 37 44 62 100 93 100 100 99 81 82 76 70 75 75 70 72
90 73 59 48 52 55 62 56 50 52 57 54 50 36 29 34 34 34 33 36 39 38 35 37 39 41 35 34 50 43 50 47 48 43 52 48 60 92 100 99 100 100 94 86 80 76 90 95 83
95 99 100 100 100 88 57 50 52 60 67 58 52 52 48 38 32 35 36 34 36 36 39 37 33 34 42 40 38 33 30 43 61 66 59 67 57 66 70 90 96 100 98 89 99 90 90 95 91
82 84 85 100 100 100 96 74 58 50 66 81 75 61 48 41 38 43 40 36 34 37 39 37 35 35 36 41 46 44 37 28 39 62 75 75 80 70 74 75 88 99 100 100 94 95 97 94 100
80 94 89 100 100 94 89 64 54 52 56 49 55 66 58 53 44 42 39 35 30 32 33 38 42 41 33 34 36 44 46 39 35 27 49 62 79 92 82 79 88 95 100 98 93 100 100 100 100
92 72 84 91 88 82 78 79 74 75 55 49 51 49 50 42 34 34 35 31 28 32 39 33 36 60 70 53 38 37 43 47 43 41 28 42 66 77 88 78 98 100 90 100 100 92 96 99 90
73 76 50 79 94 89 70 49 47 43 36 36 37 38 38 38 34 31 30 33 33 27 29 43 49 41 52 63 55 45 37 39 42 45 45 30 42 72 74 87 97 93 100 94 98 100 95 96 100
59 56 40 43 46 48 40 42 43 42 42 38 37 37 37 38 38 35 30 27 25 29 30 32 36 50 48 43 54 47 49 48 34 36 43 48 38 26 45 76 100 95 98 99 100 100 100 100 100
43 43 34 31 32 36 34 28 25 24 23 22 22 21 21 21 21 22 20 19 20 20 20 24 26 32 37 36 42 41 47 42 48 50 36 43 49 42 28 28 59 95 93 100 100 100 100 100 96
39 40 40 34 31 31 29 27 24 21 20 18 17 16 16 15 15 16 16 16 16 17 17 17 18 21 24 24 28 38 37 34 46 49 44 36 43 49 43 27 22 41 85 92 100 100 100 100 100
32 32 29 25 25 26 23 20 18 18 17 16 13 12 11 12 11 11 12 12 13 14 15 16 16 16 17 19 23 24 27 29 32 37 38 38 39 44 45 44 30 23 26 64 100 100 92 100 100
43 34 36 33 32 29 21 17 15 12 10 8 7 7 7 6 6 6 6 6 7 8 9 10 12 13 15 20 20 21 23 24 28 36 40 41 40 40 46 46 49 34 26 31 59 100 100 98 100
32 29 24 22 21 21 20 11 7 6 6 6 6 6 5 5 5 5 5 5 6 6 6 7 8 8 10 15 19 20 21 22 26 29 34 41 42 42 44 46 49 57 36 32 32 56 100 96 100
38 30 24 20 19 14 8 6 6 6 5 3 3 3 3 3 3 3 3 3 4 4 6 6 7 7 8 9 12 16 18 19 23 27 32 36 38 43 42 46 47 55 50 40 34 36 62 95 90
30 28 22 18 14 8 6 6 5 3 3 3 3 3 3 3 3 3 3 3 3 3 4 6 7 7 8 8 9 10 13 15 17 24 27 32 36 43 43 46 48 47 54 54 43 39 37 48 86
32 25 21 16 8 7 6 4 3 4 3 3 3 4 4 3 3 4 4 4 3 3 4 4 6 7 8 8 9 9 10 12 14 19 24 27 32 40 44 44 48 46 49 51 52 45 39 37 37
29 25 18 8 6 6 4 4 4 4 4 4 3 4 4 4 4 4 4 4 4 4 4 4 4 5 6 8 9 9 9 11 12 14 19 24 28 35 44 47 48 49 43 46 46 46 40 36 35
Wind_Speed
24 35 43 43 44 45 45 48 53 58 60 60 61 61 60 60 60 59 60 60 62 62 58 56 55 52 52 52 54 52 49 48 46 45 44 42 38 37 37 34 30 28 27 28 28 24 21 20 22
17 22 31 40 46 47 47 48 49 55 58 60 63 63 62 61 63 62 62 63 63 62 64 62 59 56 55 53 52 52 50 49 49 47 45 44 40 39 38 35 34 32 31 30 32 29 27 25 23
19 20 22 24 31 38 44 48 50 53 54 57 61 63 62 64 64 66 68 67 67 67 67 68 66 62 61 59 57 55 54 53 51 49 47 46 44 43 40 39 37 35 34 34 34 35 31 29 27
16 21 24 27 29 31 35 40 44 50 56 58 59 61 63 66 68 70 71 71 70 70 68 71 70 66 64 62 61 60 59 57 56 54 51 50 49 47 44 44 41 39 38 36 35 36 35 33 32
11 13 16 20 25 31 35 40 43 45 51 54 57 62 64 68 71 74 75 75 74 74 74 73 72 71 70 67 68 66 65 63 61 58 56 54 54 51 49 48 48 44 43 41 39 38 36 33 35
16 15 16 13 20 22 24 32 38 44 47 49 52 56 59 63 65 66 67 69 73 76 77 76 76 76 74 73 71 70 70 69 65 62 59 57 57 55 53 52 52 50 48 48 43 43 39 39 37
21 19 20 20 21 23 20 22 25 30 38 45 50 54 59 61 62 64 65 66 68 69 70 70 73 76 75 73 73 72 71 71 69 67 65 63 61 60 59 58 56 55 51 53 49 47 45 43 43
21 26 31 27 24 25 26 30 34 34 36 35 38 44 53 59 61 62 64 65 68 70 71 70 71 69 72 72 70 70 68 69 69 70 70 68 66 65 64 62 61 60 57 56 58 52 48 49 48
23 27 32 30 30 31 34 34 35 38 42 43 42 42 44 48 53 57 59 64 69 71 72 74 73 73 73 72 72 67 69 68 67 65 66 69 71 70 69 67 65 62 62 60 60 60 58 54 50
30 33 33 32 33 35 37 39 41 41 42 47 49 49 48 48 49 48 47 57 63 67 70 72 75 76 75 78 76 75 70 68 69 72 68 64 68 69 69 70 68 67 63 61 61 61 58 61 57
35 37 39 40 40 40 40 43 44 44 47 52 52 52 49 51 54 55 55 54 55 55 66 72 71 72 74 76 78 81 80 75 74 69 71 73 68 68 69 69 69 71 69 66 64 62 60 58 57
38 43 42 46 48 46 47 47 49 52 52 56 57 58 58 53 52 55 60 63 61 58 59 63 70 70 70 73 77 79 78 82 76 74 73 67 68 73 76 73 71 70 69 69 66 64 62 60 58
45 46 49 50 55 55 53 53 53 57 59 59 59 61 63 65 65 62 65 67 68 64 62 63 65 65 66 69 73 75 80 80 80 76 73 73 69 63 63 76 72 72 70 70 68 66 64 62 60
51 52 54 56 58 59 59 60 62 61 64 68 65 66 67 68 69 69 70 71 75 73 68 64 66 65 65 64 66 72 72 77 81 80 76 77 76 72 67 64 75 74 71 72 71 69 67 64 63
60 57 58 59 62 64 64 66 67 67 68 71 71 73 71 69 70 73 76 74 72 77 78 76 72 74 73 72 65 70 71 72 74 79 81 76 81 81 76 71 67 74 77 71 74 72 70 69 65
63 66 65 66 67 70 72 75 74 73 74 77 78 81 79 77 76 74 76 78 79 80 82 83 83 80 75 76 75 75 74 77 71 72 77 74 79 79 80 77 74 69 74 76 73 74 73 72 71
75 77 77 76 73 75 79 81 82 81 81 84 86 87 86 87 85 86 84 84 83 83 83 85 87 87 82 78 77 75 78 77 78 76 70 72 73 80 77 80 76 73 72 74 78 75 75 75 73
73 78 78 81 79 82 87 91 89 89 89 89 94 96 96 95 93 92 93 93 91 89 91 89 86 85 89 86 82 79 79 80 78 81 81 78 75 74 81 79 82 78 73 77 77 77 78 77 75
78 78 80 83 87 89 93 96 94 94 95 94 95 99 102 103 101 99 99 98 98 94 92 93 94 89 91 92 91 87 85 83 83 80 83 83 81 80 80 79 80 82 77 76 80 81 78 77 76
73 78 77 77 82 86 90 90 91 89 91 94 95 97 101 104 105 103 102 101 101 103 102 101 99 101 99 97 98 97 91 89 88 86 84 83 89 84 85 84 83 82 86 83 80 80 81 78 79
74 72 71 73 77 82 86 89 90 91 92 97 101 103 105 107 111 112 112 112 111 110 113 112 112 110 108 107 106 104 102 98 94 92 89 87 88 91 94 89 89 87 86 87 85 83 77 79 78
70 69 70 70 72 76 87 92 95 99 102 105 111 114 117 120 122 123 125 126 123 121 121 122 122 121 120 117 114 112 110 106 103 98 96 93 91 93 95 98 95 91 90 90 89 88 83 80 77
72 69 73 77 84 85 92 100 102 105 110 112 112 114 116 120 124 127 129 131 132 130 130 130 129 131 129 129 126 121 118 114 109 107 103 98 95 97 98 98 100 101 95 94 95 92 92 84 63
75 75 79 83 89 96 99 100 105 108 109 112 111 112 111 111 113 115 117 118 120 122 124 127 127 132 132 134 132 130 127 123 117 113 109 104 99 98 101 102 100 99 100 101 98 97 96 91 93
85 86 89 95 101 104 102 99 102 105 106 104 102 100 99 98 100 100 101 102 104 107 111 116 120 120 122 128 132 132 131 127 121 116 113 109 104 102 101 104 103 100 97 98 104 103 100 99 99
91 93 93 97 96 97 103 103 95 90 89 89 87 86 85 85 88 88 90 91 93 95 97 102 109 110 111 119 124 128 127 124 121 119 117 113 109 105 105 107 106 104 104 100 101 106 107 104 101
102 103 103 98 100 99 95 93 86 79 75 73 71 70 70 71 73 73 77 79 83 86 90 93 98 100 102 105 111 119 119 119 119 117 116 114 112 110 108 109 109 107 107 106 103 101 111 111 108
104 105 104 102 101 97 88 82 77 71 67 62 58 58 60 62 61 61 64 68 72 75 79 84 90 93 93 95 99 103 107 111 111 112 114 114 112 112 112 110 112 111 109 109 106 103 104 110 112
111 109 106 105 98 86 79 74 68 64 60 56 51 49 51 54 54 53 56 59 61 65 71 77 80 84 88 90 92 92 94 100 103 108 110 111 112 113 113 112 113 114 113 113 112 108 107 106 109
107 105 105 99 91 80 73 65 60 57 55 50 45 43 44 47 48 48 49 52 54 58 63 68 74 77 80 82 84 88 91 94 97 102 104 107 108 110 110 112 114 116 117 116 116 113 111 110 108
Wind_Direction
240 233 234 235 240 250 249 242 241 241 241 244 245 244 244 246 247 246 243 245 247 252 251 249 251 251 252 251 251 251 252 252 252 256 259 260 259 260 263 265 264 260 248 246 242 240 241 246 244
250 251 243 239 243 245 247 244 239 241 242 244 243 243 246 245 247 247 247 246 249 251 256 254 251 251 251 252 251 249 249 251 252 252 254 257 259 259 261 260 258 256 247 245 245 244 245 244 242
259 255 250 245 245 245 245 244 243 244 243 243 243 244 243 243 244 244 246 246 247 249 252 255 255 254 253 254 253 251 250 250 251 251 252 255 257 259 259 258 255 254 250 245 246 245 246 241 241
270 266 266 262 259 257 254 250 248 246 244 241 242 244 243 243 245 246 247 246 247 247 246 249 252 256 254 254 254 253 252 250 251 252 251 252 255 255 257 255 254 255 252 247 243 243 247 242 238
315 287 278 274 265 262 260 258 255 253 250 247 246 245 246 246 246 246 246 248 249 249 248 247 249 251 253 251 254 254 254 253 252 251 250 249 251 252 252 254 253 251 252 248 245 240 246 238 238
322 313 308 287 306 281 272 261 258 258 257 255 254 252 250 249 250 250 249 251 251 249 248 249 249 251 250 252 251 251 252 253 251 250 249 249 250 251 249 253 249 247 245 242 245 241 241 240 240
326 309 304 299 297 288 276 278 273 266 259 259 258 257 257 256 251 252 251 251 251 250 249 250 248 248 250 249 250 250 249 248 248 248 247 246 247 247 249 248 249 248 246 239 240 242 240 242 239
313 309 309 308 306 278 273 277 276 275 266 259 260 261 257 257 257 255 255 253 254 252 251 251 250 245 244 247 246 247 248 248 248 247 245 242 242 243 246 247 247 249 245 240 235 234 239 239 239
304 298 303 306 299 291 283 281 280 276 275 272 268 255 265 262 258 259 257 256 254 254 252 252 250 248 246 245 243 244 248 247 245 244 245 244 242 240 242 244 245 245 244 243 239 238 240 238 237
304 299 297 293 293 292 288 286 285 278 275 275 275 271 267 267 265 257 256 258 259 259 259 255 252 250 246 245 242 240 240 244 244 244 243 244 244 242 242 243 242 241 244 243 242 240 240 236 242
301 294 294 293 289 284 282 280 281 277 279 273 271 269 269 270 268 267 266 258 253 259 254 256 255 254 250 248 246 244 239 241 245 245 244 243 245 245 244 242 242 241 241 242 243 241 240 239 240
294 294 294 291 286 282 279 276 279 281 271 270 271 267 268 267 270 268 267 265 263 259 258 259 252 251 251 251 248 247 245 243 242 243 244 243 244 244 244 244 242 241 240 241 242 241 240 239 237
295 293 291 285 283 282 280 277 276 273 275 271 271 270 269 270 268 266 266 269 269 265 261 259 255 252 246 245 248 249 245 243 241 241 241 244 243 243 243 242 242 242 240 240 240 240 239 238 238
294 292 289 284 281 278 278 276 273 273 269 268 268 267 268 269 267 265 264 263 264 264 259 253 254 252 251 244 241 244 246 244 244 243 238 237 241 242 241 243 242 240 241 239 239 240 240 239 238
294 291 290 288 283 281 278 274 273 271 269 268 268 269 268 265 267 267 262 258 258 259 260 257 253 252 252 247 240 238 239 242 242 242 241 238 236 238 240 242 244 241 239 240 240 238 239 239 238
295 292 289 284 283 282 279 276 273 270 268 267 266 266 266 267 263 260 261 261 259 257 253 253 253 251 250 250 247 245 239 237 235 239 240 240 239 239 237 238 242 242 239 238 239 238 238 238 238
293 291 288 285 283 279 278 278 278 272 269 267 266 266 264 265 264 263 260 260 258 252 250 251 252 250 246 247 248 246 245 239 234 232 234 236 237 240 237 235 235 239 241 238 237 239 238 238 238
295 289 285 282 281 281 280 279 277 274 274 273 268 264 263 263 262 260 260 261 258 253 250 246 247 249 250 245 243 246 245 244 242 236 234 232 231 234 237 235 235 234 237 240 237 236 238 237 238
294 294 285 284 281 280 279 278 277 276 274 271 265 263 266 265 261 261 260 256 254 255 252 248 246 248 250 252 247 242 243 244 242 241 237 232 229 230 233 233 234 234 234 235 238 237 237 239 237
298 299 285 280 281 279 277 275 274 274 273 271 267 265 264 262 261 260 254 252 254 254 253 254 252 248 247 250 251 250 244 242 243 240 240 237 230 228 230 230 232 231 232 233 235 238 238 237 238
299 294 288 281 278 279 280 280 279 275 271 268 265 263 260 258 260 260 256 251 249 250 251 252 252 252 250 247 248 249 250 247 241 240 240 240 238 234 228 229 230 230 229 232 233 236 237 237 236
298 296 292 287 285 286 284 279 275 274 271 268 265 262 259 257 255 255 254 253 251 247 246 248 249 249 249 248 249 247 246 247 248 244 240 238 239 239 235 228 229 229 229 229 232 232 232 235 237
304 305 303 300 299 298 293 290 286 283 280 276 273 269 266 263 260 257 256 255 255 254 251 246 245 246 246 247 247 247 247 244 244 246 245 238 236 237 238 234 229 230 228 229 230 232 234 232 239
307 307 305 302 299 297 292 289 288 285 281 278 276 274 271 268 265 263 260 257 254 254 252 251 249 246 245 246 245 245 245 244 242 242 243 242 236 233 235 237 235 230 230 230 230 231 232 231 232
314 314 311 308 305 302 297 293 287 285 284 282 279 276 273 269 266 263 260 258 255 253 250 249 248 247 244 243 244 244 244 243 241 241 241 240 237 233 233 234 235 234 229 230 230 231 232 233 235
317 314 310 307 304 303 300 297 294 290 285 282 278 275 272 267 264 261 259 256 253 251 248 246 245 244 242 241 241 242 243 244 242 240 238 237 237 232 230 231 232 232 232 230 231 230 231 232 232
319 316 313 311 310 306 304 301 298 294 289 284 280 275 270 266 263 259 256 253 250 248 245 243 242 242 241 239 238 238 239 240 239 239 238 235 235 234 231 229 230 230 232 232 231 232 230 232 232
319 317 316 316 313 312 309 304 301 298 293 287 280 274 269 264 260 256 252 250 247 244 242 241 240 239 239 238 236 236 236 236 235 236 236 235 233 232 231 229 229 229 229 230 231 231 232 232 232
322 320 320 317 315 314 310 307 303 299 294 289 283 274 267 263 257 251 248 246 244 241 238 237 237 235 234 233 233 232 232 232 232 232 233 233 232 231 231 230 229 229 229 229 229 231 232 232 233
322 321 320 318 318 317 314 309 304 302 297 291 284 274 266 260 256 249 244 242 241 238 234 233 233 232 231 230 229 228 226 226 227 229 229 230 231 231 231 231 230 230 230 229 230 231 233 234 234